Theta_e
311 311 311 311 311 310 310 311 310 310 311 311 311 312 312 312 313 313 313 313 313 313 313 313 313 313 310 300 302 315 330 326 317 315 311 309 306 306 306 312 313 310 313 316 317 317 318
311 311 311 310 310 310 310 310 310 310 310 311 311 311 312 312 312 313 314 313 313 313 313 313 313 313 306 295 310 312 313 314 313 312 312 316 309 310 308 309 310 314 312 313 315 315 316
311 311 311 311 311 311 311 311 311 311 312 312 312 313 312 312 313 313 314 313 313 313 313 313 314 311 303 299 310 311 311 310 313 313 310 314 318 311 310 307 313 312 309 312 313 314 313
311 311 311 311 311 311 311 311 311 311 312 312 312 313 312 312 312 313 313 313 312 313 313 314 314 310 298 308 311 309 310 308 309 310 310 312 314 310 310 312 309 307 307 303 311 314 315
311 311 311 311 311 310 310 311 311 311 312 312 312 312 311 311 311 312 312 312 313 313 314 315 310 306 298 313 306 309 309 304 306 308 309 311 309 306 307 304 302 305 300 302 306 313 312
310 310 310 310 310 310 310 310 310 311 311 311 312 312 311 311 311 312 311 311 312 312 313 313 311 302 306 302 306 308 311 309 303 304 303 305 304 300 301 300 295 298 299 302 303 309 310
310 310 309 309 310 310 311 311 311 311 311 311 311 311 311 312 312 311 309 309 303 302 307 303 304 302 303 307 307 304 306 304 305 303 297 301 297 295 297 301 302 302 302 301 306 310 308
309 309 310 310 310 310 311 311 311 311 310 311 311 311 311 311 312 310 309 304 303 304 295 302 302 301 303 304 298 301 306 298 298 295 300 297 295 301 302 301 300 299 299 300 305 308 308
309 310 310 310 310 310 310 310 311 311 311 311 311 311 311 311 310 310 307 305 308 307 296 297 300 300 300 302 297 299 302 299 295 294 296 294 297 301 301 299 298 299 298 300 300 305 307
309 309 309 309 310 310 309 309 309 310 310 311 310 310 310 310 306 307 304 308 309 308 289 292 295 299 301 301 297 305 306 300 296 291 294 296 300 298 299 298 299 296 302 301 301 300 297
308 308 308 309 309 309 309 309 308 309 310 310 310 310 310 308 307 304 306 310 309 304 278 295 297 307 304 299 301 301 307 302 294 294 294 291 296 296 295 298 301 298 303 301 301 300 300
307 308 307 309 308 309 308 308 309 309 309 309 310 310 309 309 309 310 310 309 305 286 278 290 296 294 295 297 297 301 302 304 304 297 295 294 298 297 299 300 302 304 301 301 301 300 294
308 308 308 308 307 308 308 307 307 308 308 309 309 309 307 310 304 311 310 302 286 280 292 287 289 292 291 291 293 295 295 294 292 289 290 294 293 297 299 297 301 300 299 291 290 291 290
307 307 308 308 308 308 308 307 307 307 308 308 308 307 311 311 311 311 306 294 279 286 286 292 291 292 289 292 292 292 291 290 294 293 289 287 287 293 298 296 297 298 299 292 285 288 292
307 307 307 307 307 308 307 307 307 307 307 307 306 312 310 311 312 310 300 286 284 288 291 289 290 288 288 291 291 291 289 289 292 294 288 288 289 299 297 299 300 297 294 301 296 297 293
306 306 307 307 308 307 307 307 307 307 307 306 305 308 307 313 313 306 295 287 290 293 292 292 285 287 285 288 287 288 289 293 293 295 296 291 286 294 299 299 299 299 302 294 297 289 289
306 306 307 307 307 308 307 308 308 308 307 305 306 302 309 312 312 300 290 290 292 295 294 290 288 287 288 287 289 288 289 293 296 294 296 294 291 289 296 296 293 296 296 298 300 297 291
306 306 307 307 308 308 308 307 307 307 305 305 306 297 309 311 298 300 292 293 294 294 296 293 293 291 289 290 288 289 289 292 297 296 291 295 292 287 290 300 299 300 297 299 294 293 297
306 305 306 307 307 307 307 307 307 307 306 304 302 301 310 307 292 291 294 293 294 293 294 293 292 293 293 290 286 291 291 296 297 295 292 294 291 285 288 295 300 297 299 301 302 303 297
306 306 306 306 307 307 307 307 307 307 306 305 302 294 300 302 300 294 291 290 290 296 294 294 292 294 293 289 292 289 289 295 297 296 298 295 291 288 285 289 295 294 297 300 301 296 297
305 305 306 306 306 307 307 308 307 307 306 305 303 296 299 291 293 293 293 291 290 289 294 294 292 292 290 287 289 289 292 293 296 296 296 293 287 291 291 292 294 295 297 298 298 301 297
305 305 305 306 306 306 307 307 307 307 306 305 297 295 298 294 296 294 293 291 290 291 292 291 290 291 292 289 290 288 291 292 291 295 294 296 288 291 289 292 292 291 297 299 300 301 302
305 305 305 306 306 306 306 307 307 307 307 302 304 304 298 294 294 292 292 292 291 294 295 295 294 293 291 293 296 296 297 296 295 293 292 292 291 288 285 291 290 289 297 299 301 304 304
306 305 305 305 305 306 306 307 307 307 307 303 302 303 295 290 293 292 294 293 292 293 292 296 296 294 298 302 301 300 298 297 296 295 296 291 291 290 287 289 281 297 304 303 302 306 307
306 306 305 305 305 305 306 306 307 307 308 305 305 302 297 290 293 293 294 293 295 296 294 295 297 299 302 299 292 290 291 292 293 295 295 296 292 288 286 286 290 296 301 301 301 302 307
307 306 306 306 305 304 305 306 306 307 307 306 306 307 300 293 293 297 294 294 292 292 294 295 301 304 302 294 291 285 283 287 288 291 298 296 296 291 288 283 286 297 303 307 307 298 308
307 307 306 306 306 306 305 305 305 306 307 306 305 312 303 294 299 298 295 293 296 295 291 295 296 296 301 293 286 286 285 289 286 287 289 290 292 287 286 285 290 299 300 308 295 297 310
307 306 306 306 306 306 306 305 305 306 306 305 304 310 305 297 299 301 302 297 298 297 290 294 292 294 294 288 287 287 287 288 288 289 289 288 288 288 290 286 284 299 301 297 301 310 310
306 306 306 306 306 306 306 307 306 306 306 306 300 309 311 300 299 305 305 306 305 302 298 293 291 294 294 291 291 290 287 289 288 285 295 287 290 288 291 287 295 301 301 304 306 307 309
Wind_Speed
15 16 16 16 17 16 16 16 16 17 17 17 18 19 20 21 22 21 20 20 19 18 16 15 15 15 13 12 16 11 9 10 9 12 18 23 25 25 30 27 26 31 29 29 28 28 28
16 17 17 16 16 16 16 16 16 16 15 15 17 18 19 19 20 20 21 21 20 19 17 16 14 13 14 23 12 17 14 12 13 15 21 21 22 25 27 30 32 27 29 31 31 30 29
16 16 15 16 16 17 18 18 18 17 16 15 16 17 19 20 20 20 19 20 21 21 23 19 15 12 17 23 19 21 21 14 16 18 19 19 19 25 26 32 31 31 34 32 32 30 30
16 16 17 17 17 18 19 19 19 18 18 17 18 18 19 21 22 23 24 25 25 22 23 21 16 13 14 16 17 20 21 23 23 21 21 19 19 20 24 27 31 32 32 31 28 29 33
17 18 18 18 18 18 19 18 18 18 18 17 16 16 18 20 21 22 23 27 30 30 21 13 9 12 15 13 14 18 20 22 21 20 21 18 20 19 18 21 22 29 23 35 34 29 30
17 18 18 18 18 17 17 18 18 18 18 19 18 18 18 20 23 23 24 31 28 16 12 12 13 12 18 14 12 6 6 7 14 17 19 22 16 20 19 20 25 22 31 34 28 25 27
17 18 18 18 19 19 19 19 19 20 20 21 21 20 20 21 23 22 20 14 7 4 10 17 15 14 22 17 6 9 10 10 13 14 20 22 18 26 43 29 30 28 32 32 28 27 28
17 17 18 19 19 19 19 19 20 21 22 23 24 23 23 23 23 26 15 11 15 13 20 19 27 31 27 26 28 23 18 17 15 19 19 20 30 39 21 32 33 33 31 32 27 26 24
16 17 18 19 19 18 20 19 20 20 21 21 22 23 24 25 23 16 10 12 11 16 17 30 34 30 25 26 25 22 21 22 22 22 21 25 36 23 30 31 29 33 32 26 30 25 26
16 17 18 18 18 19 22 23 23 22 23 22 22 24 25 24 11 14 11 15 16 14 11 12 8 9 18 5 16 16 17 22 23 26 23 24 25 32 31 34 32 29 27 28 27 24 18
17 17 18 17 18 19 21 22 23 24 23 23 24 25 25 11 11 8 15 15 13 5 8 13 17 9 19 15 4 5 3 17 19 21 22 32 24 26 32 36 29 33 24 26 27 24 21
17 18 18 17 19 19 19 21 21 22 23 23 24 24 23 2 10 12 16 14 8 5 4 9 9 13 16 17 19 6 11 5 14 18 21 29 26 28 29 27 32 25 27 27 25 18 18
18 18 18 18 18 18 18 20 22 22 23 23 24 23 17 11 11 14 11 7 6 3 18 9 15 12 12 14 17 12 16 12 12 7 19 24 26 29 30 29 29 31 21 17 17 18 24
18 19 18 17 17 17 17 19 20 22 23 24 27 24 10 10 8 6 6 2 5 12 15 20 20 22 19 17 16 19 17 12 16 13 10 12 15 28 29 32 25 30 25 15 26 16 19
18 19 19 19 18 17 17 18 20 22 23 24 28 8 8 5 5 5 6 5 4 14 17 19 20 17 19 17 17 22 20 9 15 3 8 10 15 24 29 29 28 25 29 27 23 21 17
19 19 20 19 18 18 18 20 21 22 24 24 10 9 5 8 6 6 4 12 14 17 18 17 17 2 18 25 7 10 16 4 10 1 4 6 18 21 25 28 33 29 21 27 18 23 21
18 20 20 19 19 19 20 21 23 24 25 30 6 5 6 2 6 6 6 14 22 19 18 18 20 9 17 20 17 17 10 6 3 5 9 13 13 23 22 24 28 25 24 27 18 19 16
18 19 19 20 19 20 20 21 22 23 24 14 6 6 7 2 3 4 10 21 19 16 17 14 15 20 10 22 19 20 14 8 8 10 10 17 7 17 23 27 25 29 25 23 16 24 16
18 19 19 19 19 19 20 21 22 22 18 9 7 9 5 5 3 8 17 18 20 18 16 20 17 18 9 15 9 13 9 6 5 6 2 6 7 10 21 19 21 27 28 25 21 13 19
18 18 19 19 19 19 19 21 21 22 18 10 7 6 2 5 4 9 17 16 18 19 12 15 18 16 15 15 17 10 13 5 8 11 10 3 7 17 11 10 18 13 30 31 24 20 17
19 19 19 19 19 19 19 20 21 22 20 9 5 6 6 8 11 11 13 18 19 17 13 18 10 16 18 16 20 17 10 14 8 1 3 3 8 18 19 10 15 23 28 31 28 24 22
19 19 19 19 19 19 19 19 19 21 24 6 7 6 8 14 14 13 12 14 19 20 18 15 13 18 19 18 17 18 19 14 9 8 6 8 5 19 17 12 15 25 28 24 30 27 27
19 19 19 19 19 19 18 18 18 17 14 5 5 7 2 10 14 12 7 18 19 18 11 17 18 19 16 15 20 21 21 19 19 19 14 12 8 8 12 7 9 19 23 22 27 23 27
18 19 19 19 19 19 18 17 17 15 12 6 8 8 4 11 13 14 15 13 21 23 16 20 13 12 13 21 21 21 21 21 19 19 17 14 11 4 4 11 6 10 14 22 23 23 21
19 19 19 19 19 18 18 17 16 15 12 8 8 5 2 8 15 14 20 17 17 18 18 18 15 15 17 16 14 11 10 12 18 22 17 11 8 5 2 4 16 12 13 14 12 8 20
21 20 20 19 20 19 18 17 16 16 14 8 9 5 3 5 6 22 16 19 12 14 13 18 17 19 8 4 7 8 3 4 4 9 12 10 6 4 1 3 6 8 21 29 17 12 17
20 21 22 20 20 21 20 19 18 16 15 9 8 8 4 5 14 16 15 11 9 8 8 17 17 13 8 6 3 4 5 4 6 7 6 2 2 4 3 1 8 19 29 25 4 4 9
19 21 22 21 21 20 21 20 19 17 15 10 9 10 5 5 16 20 14 17 15 6 4 8 10 8 5 7 5 5 5 5 4 4 5 4 5 1 3 4 5 19 14 11 7 5 11
19 19 19 21 21 20 21 20 19 18 15 12 8 6 3 3 15 23 24 21 17 8 4 1 4 10 3 4 5 5 3 4 6 3 8 4 5 4 6 3 6 14 7 12 11 11 13
Wind_Direction
21 22 16 14 11 7 2 359 358 353 351 351 346 343 340 337 334 331 326 323 317 311 308 309 311 312 308 242 246 261 171 161 185 199 228 235 239 238 239 237 235 237 242 245 250 253 254
22 21 17 12 11 6 2 357 354 349 347 343 338 337 334 330 326 322 318 315 311 307 302 302 295 294 268 264 272 267 260 263 254 247 230 223 235 242 249 242 241 242 244 249 258 259 260
18 15 11 8 11 3 358 355 353 350 343 340 334 333 333 330 325 318 310 303 298 298 300 296 285 275 266 258 293 299 301 283 265 254 252 258 231 232 248 249 254 252 256 262 254 259 266
14 10 9 9 13 4 357 354 351 348 344 345 339 337 334 329 324 319 315 309 301 295 295 291 285 265 264 273 264 260 255 249 252 262 265 269 281 290 258 254 263 254 257 260 252 254 254
13 11 9 6 7 1 354 352 349 345 343 340 337 332 326 321 316 310 304 297 294 293 289 266 253 218 272 258 230 239 245 253 253 244 241 241 252 259 269 246 243 244 248 249 248 248 262
11 9 6 4 1 358 352 350 347 344 343 340 337 333 327 321 318 311 310 296 276 274 248 228 234 253 241 266 270 196 295 226 235 250 251 232 227 239 241 235 225 221 235 242 257 250 250
8 5 3 1 357 355 350 348 345 345 344 342 338 334 328 323 318 312 320 306 340 245 219 272 278 215 294 298 201 233 268 267 253 241 236 224 217 222 219 220 241 237 239 248 254 252 247
8 4 358 356 354 351 347 345 344 343 342 339 336 332 328 320 315 312 298 292 329 322 294 278 265 267 269 273 270 267 268 251 250 239 229 227 220 226 233 227 234 244 255 253 261 261 258
2 358 357 356 351 349 349 346 344 341 338 334 331 327 327 319 318 294 280 324 331 294 293 281 262 257 259 247 245 252 240 240 240 245 235 225 236 226 235 234 234 234 236 247 259 268 271
359 356 355 352 349 349 348 346 344 340 336 334 330 325 325 325 284 323 310 345 324 354 288 277 226 214 225 234 257 248 232 229 234 238 249 247 239 240 227 238 230 240 233 243 248 253 259
355 353 351 349 349 348 345 342 340 337 334 332 327 328 323 319 311 329 331 335 329 334 272 36 17 17 348 216 145 196 219 243 241 243 231 242 242 233 239 238 229 244 244 245 244 249 257
352 351 350 350 349 346 342 337 335 333 332 329 325 329 331 332 217 298 330 330 332 253 257 6 11 328 345 337 306 316 197 214 276 243 245 254 249 257 245 241 247 238 243 248 255 254 245
347 344 344 346 348 344 340 337 336 331 328 325 321 323 315 309 335 334 328 329 282 301 317 351 343 334 300 283 287 244 245 256 223 269 254 245 242 252 250 251 231 240 228 233 234 233 243
344 341 340 341 343 340 338 333 333 331 326 326 319 313 267 267 344 355 322 289 265 277 1 351 343 333 318 315 301 284 278 262 267 259 256 275 270 224 239 241 236 224 234 222 219 216 246
345 342 341 341 340 338 334 331 333 330 328 327 313 245 252 24 349 316 331 278 43 316 354 340 334 346 323 340 332 306 268 257 274 124 275 317 278 262 222 244 240 230 226 237 245 234 252
346 344 343 340 336 336 335 333 329 332 329 324 316 306 284 351 24 283 286 282 294 349 335 327 326 260 308 318 328 313 318 98 297 309 297 281 287 280 287 222 245 244 218 225 221 233 239
349 347 344 340 337 336 335 331 333 335 332 316 267 228 110 333 266 265 284 305 334 329 301 321 315 290 323 323 315 327 275 170 233 283 290 269 261 271 288 265 214 229 235 217 239 227 239
349 347 345 342 339 337 333 333 336 338 336 317 296 275 121 237 284 256 293 333 319 319 325 313 315 319 3 306 305 294 239 13 238 328 304 297 283 258 268 274 217 232 224 231 218 218 237
345 345 344 342 339 337 334 333 336 337 346 321 287 289 135 239 328 321 314 319 320 334 344 326 323 310 318 298 319 320 342 173 228 275 292 346 245 260 257 266 258 229 221 234 238 241 217
340 340 342 342 340 337 337 335 337 334 337 315 282 307 37 343 347 304 321 317 317 328 328 317 309 312 310 326 287 268 336 274 239 296 267 356 260 265 254 320 339 288 211 230 226 211 227
337 339 339 340 340 338 337 336 339 335 330 306 254 342 11 299 326 313 305 291 314 335 341 329 316 325 325 310 310 322 308 312 315 172 233 206 268 287 256 255 304 301 285 224 224 202 223
332 335 336 337 338 339 336 334 338 339 331 253 335 339 348 299 306 306 314 319 322 329 327 314 319 317 312 309 310 315 309 297 288 270 242 217 282 300 281 212 272 287 276 266 220 199 221
328 330 333 333 334 335 335 334 336 343 341 304 359 298 311 289 303 327 320 325 313 330 304 306 306 313 305 310 311 305 294 285 281 277 262 279 301 320 248 193 323 272 236 241 211 203 214
325 327 330 332 332 333 333 334 333 339 343 295 292 299 285 293 310 326 336 317 320 322 315 314 327 304 308 321 308 292 270 258 248 252 256 261 284 267 8 60 262 245 246 251 206 196 209
323 325 328 328 329 329 330 329 330 331 333 302 295 286 273 287 311 308 335 333 319 319 314 312 326 338 328 324 314 310 315 239 231 230 229 225 256 274 204 200 298 320 0 337 267 79 14
320 322 324 326 326 327 327 326 324 325 327 303 285 254 254 288 302 326 319 311 324 323 320 325 325 337 330 311 318 308 284 283 309 316 253 172 222 232 62 255 226 19 350 319 298 93 11
314 318 321 323 324 326 325 325 324 321 319 309 284 279 273 264 271 320 310 316 320 308 290 308 344 316 34 327 305 317 351 308 354 316 330 137 229 263 275 219 293 340 329 306 354 76 38
312 315 317 318 320 323 322 322 321 318 315 312 288 292 248 258 290 284 320 299 301 302 289 331 320 12 14 354 341 352 329 354 301 318 360 332 333 345 242 224 341 325 336 50 313 316 45
308 309 310 313 317 317 320 320 319 315 310 305 279 282 233 239 276 287 278 276 276 288 301 58 295 299 344 325 8 309 313 295 314 23 358 10 22 341 4 31 287 298 6 17 352 25 38